FNG9 EFTU-EFTU

Flight info

Callsign FNG9
Flight time 1h 43m
Altitude 2000
Route UPAPU4B UPAPU DCT 5929N02229E 5946N02351E 5957N02448E 5957N02545E 6008N02624E 6016N02654E 6020N02636E 6011N02553E 5959N02451E 5945N02401E 5926N02238E 5929N02229E DCT UPAPU UPAPU4D
Aircraft CL60/M-SBDE1E2E3FGHIJ1J3J4J7P2RWXYZ/LB1D1

Departure

Time 2026-04-15 16:03
Airport Turku Airport (EFTU)

Arrival

Time 2026-04-15 17:46
Airport Turku Airport (EFTU)
Time Latitude Longitude Altitude Speed Heading
2026-04-15 15:42 60.51318 22.28777 151 ft 0 kts 354°
2026-04-15 15:56 60.51320 22.28776 151 ft 1 kts 356°
2026-04-15 15:56 60.51321 22.28776 151 ft 0 kts 359°
2026-04-15 16:00 60.51322 22.28776 151 ft 0 kts 359°
2026-04-15 16:00 60.51342 22.28753 151 ft 6 kts 288°
2026-04-15 16:00 60.51339 22.28687 152 ft 0 kts 259°
2026-04-15 16:00 60.51336 22.28650 152 ft 4 kts 259°
2026-04-15 16:01 60.51336 22.28574 153 ft 3 kts 315°
2026-04-15 16:01 60.51380 22.28553 153 ft 9 kts 352°
2026-04-15 16:01 60.51419 22.28543 153 ft 0 kts 354°
2026-04-15 16:01 60.51428 22.28542 153 ft 4 kts 353°
2026-04-15 16:02 60.51477 22.28530 153 ft 9 kts 352°
2026-04-15 16:02 60.51512 22.28486 153 ft 7 kts 264°
2026-04-15 16:02 60.51498 22.28195 156 ft 58 kts 265°
2026-04-15 16:02 60.51427 22.26677 194 ft 148 kts 263°
2026-04-15 16:03 60.51338 22.24568 789 ft 157 kts 264°
2026-04-15 16:03 60.51243 22.22276 1699 ft 169 kts 264°
2026-04-15 16:03 60.51121 22.19837 2576 ft 188 kts 263°
2026-04-15 16:03 60.50956 22.16739 2881 ft 247 kts 263°
2026-04-15 16:04 60.50756 22.13046 3545 ft 285 kts 263°
2026-04-15 16:04 60.50221 22.09267 3765 ft 273 kts 237°
2026-04-15 16:04 60.48847 22.06712 3792 ft 268 kts 201°
2026-04-15 16:04 60.47041 22.06165 3613 ft 259 kts 166°
2026-04-15 16:05 60.45492 22.07796 3538 ft 248 kts 136°
2026-04-15 16:05 60.44236 22.10159 3514 ft 250 kts 134°
2026-04-15 16:05 60.42948 22.12593 3513 ft 251 kts 134°
2026-04-15 16:05 60.41680 22.14968 3509 ft 251 kts 134°
2026-04-15 16:06 60.40373 22.17391 3520 ft 251 kts 135°
2026-04-15 16:06 60.39085 22.19725 3512 ft 251 kts 135°
2026-04-15 16:06 60.37756 22.22097 3509 ft 251 kts 136°
2026-04-15 16:06 60.36455 22.24414 3512 ft 251 kts 136°
2026-04-15 16:07 60.35141 22.26750 3516 ft 251 kts 136°
2026-04-15 16:07 60.33832 22.29071 3502 ft 250 kts 136°
2026-04-15 16:07 60.31209 22.33711 3517 ft 251 kts 136°
2026-04-15 16:08 60.29901 22.36017 3504 ft 250 kts 136°
2026-04-15 16:08 60.28581 22.38342 3519 ft 251 kts 136°
2026-04-15 16:08 60.27245 22.40692 3513 ft 250 kts 136°
2026-04-15 16:08 60.25924 22.43010 3506 ft 250 kts 136°
2026-04-15 16:09 60.24612 22.45310 3517 ft 250 kts 136°
2026-04-15 16:09 60.23291 22.47624 3512 ft 250 kts 136°
2026-04-15 16:09 60.21979 22.49917 3511 ft 250 kts 136°
2026-04-15 16:09 60.20657 22.52226 3519 ft 250 kts 136°
2026-04-15 16:10 60.19310 22.54445 3518 ft 252 kts 143°
2026-04-15 16:10 60.17640 22.55715 3522 ft 258 kts 169°
2026-04-15 16:10 60.15831 22.55689 3516 ft 261 kts 180°
2026-04-15 16:10 60.13996 22.55471 3514 ft 261 kts 179°
2026-04-15 16:11 60.12177 22.55268 3516 ft 261 kts 180°
2026-04-15 16:11 60.10348 22.55064 3520 ft 261 kts 180°
2026-04-15 16:11 60.08540 22.54864 3516 ft 261 kts 179°
2026-04-15 16:11 60.06712 22.54661 3516 ft 261 kts 179°
2026-04-15 16:12 60.04902 22.54461 3515 ft 261 kts 179°
2026-04-15 16:12 60.03080 22.54260 3519 ft 261 kts 179°
2026-04-15 16:12 60.01264 22.54060 3517 ft 261 kts 179°
2026-04-15 16:12 59.99460 22.53861 3520 ft 261 kts 179°
2026-04-15 16:13 59.97618 22.53659 3517 ft 261 kts 179°
2026-04-15 16:13 59.95804 22.53460 3513 ft 261 kts 179°
2026-04-15 16:13 59.93990 22.53261 3513 ft 261 kts 179°
2026-04-15 16:13 59.92157 22.53061 3510 ft 261 kts 179°
2026-04-15 16:14 59.90337 22.52862 3508 ft 261 kts 179°
2026-04-15 16:14 59.88537 22.52666 3505 ft 260 kts 179°
2026-04-15 16:14 59.86747 22.52470 3509 ft 260 kts 179°
2026-04-15 16:14 59.84917 22.52271 3510 ft 260 kts 179°
2026-04-15 16:15 59.83104 22.52074 3512 ft 260 kts 179°
2026-04-15 16:15 59.81299 22.51878 3512 ft 260 kts 179°
2026-04-15 16:15 59.79479 22.51680 3512 ft 260 kts 179°
2026-04-15 16:15 59.77689 22.51486 3511 ft 260 kts 179°
2026-04-15 16:16 59.75862 22.51289 3513 ft 260 kts 179°
2026-04-15 16:16 59.74073 22.51096 3510 ft 261 kts 179°
2026-04-15 16:16 59.72235 22.50897 3506 ft 260 kts 179°
2026-04-15 16:16 59.70429 22.50702 3509 ft 260 kts 179°
2026-04-15 16:17 59.68616 22.50507 3507 ft 259 kts 179°
2026-04-15 16:17 59.66819 22.50313 3506 ft 259 kts 180°
2026-04-15 16:17 59.65030 22.50121 3506 ft 259 kts 179°
2026-04-15 16:17 59.63217 22.49927 3508 ft 259 kts 179°
2026-04-15 16:18 59.61429 22.49735 3509 ft 259 kts 179°
2026-04-15 16:18 59.59622 22.49542 3507 ft 259 kts 179°
2026-04-15 16:18 59.57822 22.49349 3503 ft 259 kts 179°
2026-04-15 16:18 59.56015 22.49156 3504 ft 259 kts 179°
2026-04-15 16:19 59.54219 22.49038 3500 ft 257 kts 172°
2026-04-15 16:19 59.52571 22.50109 3504 ft 250 kts 145°
2026-04-15 16:19 59.51311 22.52436 3501 ft 246 kts 122°
2026-04-15 16:19 59.50654 22.55482 3502 ft 245 kts 100°
2026-04-15 16:20 59.50668 22.58863 3504 ft 245 kts 77°
2026-04-15 16:20 59.51253 22.61997 3501 ft 246 kts 67°
2026-04-15 16:20 59.51924 22.65093 3500 ft 247 kts 68°
2026-04-15 16:20 59.52599 22.68245 3501 ft 246 kts 68°
2026-04-15 16:21 59.53241 22.71248 3501 ft 246 kts 68°
2026-04-15 16:21 59.53879 22.74242 3500 ft 246 kts 68°
2026-04-15 16:21 59.54545 22.77375 3496 ft 246 kts 69°
2026-04-15 16:21 59.55202 22.80471 3498 ft 246 kts 69°
2026-04-15 16:22 59.55868 22.83618 3503 ft 246 kts 69°
2026-04-15 16:22 59.56522 22.86711 3501 ft 246 kts 69°
2026-04-15 16:22 59.57182 22.89839 3495 ft 246 kts 68°
2026-04-15 16:22 59.57842 22.92979 3501 ft 247 kts 68°
2026-04-15 16:23 59.58498 22.96102 3500 ft 247 kts 68°
2026-04-15 16:23 59.59156 22.99237 3496 ft 247 kts 68°
2026-04-15 16:23 59.59814 23.02381 3504 ft 247 kts 68°
2026-04-15 16:23 59.60474 23.05541 3503 ft 247 kts 68°
2026-04-15 16:24 59.61125 23.08661 3502 ft 247 kts 68°
2026-04-15 16:24 59.61779 23.11801 3501 ft 247 kts 68°
2026-04-15 16:24 59.62435 23.14955 3502 ft 247 kts 68°
2026-04-15 16:24 59.63084 23.18080 3497 ft 247 kts 68°
2026-04-15 16:25 59.63733 23.21215 3505 ft 246 kts 68°
2026-04-15 16:25 59.64378 23.24332 3508 ft 246 kts 68°
2026-04-15 16:25 59.65031 23.27490 3508 ft 246 kts 68°
2026-04-15 16:25 59.65673 23.30606 3504 ft 246 kts 68°
2026-04-15 16:26 59.66327 23.33778 3501 ft 247 kts 68°
2026-04-15 16:26 59.66974 23.36928 3503 ft 247 kts 68°
2026-04-15 16:26 59.67621 23.40077 3502 ft 247 kts 68°
2026-04-15 16:26 59.68264 23.43218 3503 ft 247 kts 68°
2026-04-15 16:27 59.68921 23.46426 3509 ft 247 kts 68°
2026-04-15 16:27 59.69564 23.49575 3507 ft 247 kts 68°
2026-04-15 16:27 59.70208 23.52732 3506 ft 247 kts 68°
2026-04-15 16:27 59.70849 23.55881 3505 ft 247 kts 68°
2026-04-15 16:28 59.71487 23.59020 3507 ft 247 kts 68°
2026-04-15 16:28 59.72134 23.62205 3508 ft 247 kts 68°
2026-04-15 16:28 59.72777 23.65381 3511 ft 247 kts 69°
2026-04-15 16:28 59.73396 23.68440 3507 ft 247 kts 69°
2026-04-15 16:29 59.74040 23.71628 3507 ft 247 kts 69°
2026-04-15 16:29 59.74680 23.74802 3506 ft 248 kts 69°
2026-04-15 16:29 59.75319 23.77974 3508 ft 248 kts 69°
2026-04-15 16:29 59.75960 23.81162 3511 ft 248 kts 69°
2026-04-15 16:30 59.76593 23.84319 3508 ft 247 kts 69°
2026-04-15 16:30 59.77216 23.87451 3511 ft 247 kts 69°
2026-04-15 16:30 59.77844 23.90637 3508 ft 247 kts 69°
2026-04-15 16:30 59.78473 23.93831 3505 ft 247 kts 69°
2026-04-15 16:31 59.79096 23.96996 3507 ft 247 kts 69°
2026-04-15 16:31 59.79728 24.00212 3516 ft 247 kts 69°
2026-04-15 16:31 59.80347 24.03373 3523 ft 247 kts 69°
2026-04-15 16:31 59.80977 24.06592 3524 ft 247 kts 69°
2026-04-15 16:32 59.81596 24.09755 3528 ft 247 kts 69°
2026-04-15 16:32 59.82214 24.12923 3532 ft 248 kts 69°
2026-04-15 16:32 59.82835 24.16112 3525 ft 248 kts 69°
2026-04-15 16:32 59.83454 24.19297 3526 ft 248 kts 69°
2026-04-15 16:33 59.84084 24.22545 3530 ft 247 kts 69°
2026-04-15 16:33 59.84686 24.25650 3525 ft 248 kts 69°
2026-04-15 16:33 59.85304 24.28842 3523 ft 248 kts 69°
2026-04-15 16:33 59.85915 24.32003 3525 ft 247 kts 68°
2026-04-15 16:34 59.86543 24.35261 3532 ft 247 kts 68°
2026-04-15 16:34 59.87118 24.38246 3526 ft 247 kts 68°
2026-04-15 16:34 59.87746 24.41514 3532 ft 247 kts 68°
2026-04-15 16:34 59.88369 24.44758 3531 ft 247 kts 68°
2026-04-15 16:35 59.88985 24.47971 3524 ft 247 kts 68°
2026-04-15 16:35 59.89605 24.51210 3535 ft 248 kts 68°
2026-04-15 16:35 59.90214 24.54402 3532 ft 247 kts 68°
2026-04-15 16:35 59.90830 24.57631 3531 ft 247 kts 68°
2026-04-15 16:36 59.91444 24.60854 3535 ft 247 kts 68°
2026-04-15 16:36 59.92049 24.64036 3532 ft 247 kts 68°
2026-04-15 16:36 59.92654 24.67224 3536 ft 247 kts 69°
2026-04-15 16:36 59.93246 24.70375 3536 ft 247 kts 70°
2026-04-15 16:37 59.93497 24.73813 3531 ft 249 kts 88°
2026-04-15 16:37 59.93483 24.77241 3539 ft 249 kts 89°
2026-04-15 16:37 59.93469 24.80745 3533 ft 249 kts 89°
2026-04-15 16:37 59.93458 24.84250 3539 ft 250 kts 88°
2026-04-15 16:38 59.93461 24.87694 3537 ft 250 kts 88°
2026-04-15 16:38 59.93459 24.91200 3532 ft 251 kts 90°
2026-04-15 16:38 59.93282 24.94679 3539 ft 252 kts 95°
2026-04-15 16:38 59.93072 24.98126 3534 ft 251 kts 95°
2026-04-15 16:39 59.92875 25.01634 3533 ft 251 kts 94°
2026-04-15 16:39 59.92697 25.05098 3529 ft 250 kts 93°
2026-04-15 16:39 59.92537 25.08542 3530 ft 250 kts 92°
2026-04-15 16:39 59.92392 25.12027 3529 ft 250 kts 92°
2026-04-15 16:40 59.92262 25.15521 3533 ft 250 kts 91°
2026-04-15 16:40 59.92151 25.18981 3530 ft 250 kts 91°
2026-04-15 16:40 59.92205 25.22420 3537 ft 248 kts 77°
2026-04-15 16:40 59.92602 25.25792 3537 ft 248 kts 75°
2026-04-15 16:41 59.92986 25.29150 3529 ft 248 kts 76°
2026-04-15 16:41 59.93343 25.32560 3537 ft 249 kts 77°
2026-04-15 16:41 59.93664 25.35949 3533 ft 249 kts 78°
2026-04-15 16:41 59.93951 25.39322 3512 ft 249 kts 79°
2026-04-15 16:42 59.94212 25.42783 3510 ft 248 kts 80°
2026-04-15 16:42 59.94435 25.46196 3510 ft 248 kts 81°
2026-04-15 16:42 59.94624 25.49608 3503 ft 248 kts 82°
2026-04-15 16:42 59.94781 25.53041 3509 ft 249 kts 83°
2026-04-15 16:43 59.94905 25.56510 3503 ft 249 kts 84°
2026-04-15 16:43 59.94992 25.59984 3509 ft 250 kts 85°
2026-04-15 16:43 59.95022 25.63458 3507 ft 250 kts 87°
2026-04-15 16:43 59.95022 25.66976 3510 ft 250 kts 88°
2026-04-15 16:44 59.95021 25.70179 3508 ft 250 kts 88°
2026-04-15 16:44 59.95043 25.73798 3507 ft 249 kts 82°
2026-04-15 16:44 59.95577 25.77032 3507 ft 245 kts 60°
2026-04-15 16:44 59.96424 25.79949 3508 ft 245 kts 59°
2026-04-15 16:45 59.97282 25.82926 3517 ft 245 kts 59°
2026-04-15 16:45 59.98137 25.85904 3510 ft 245 kts 59°
2026-04-15 16:45 59.98975 25.88831 3511 ft 245 kts 59°
2026-04-15 16:45 59.99836 25.91843 3501 ft 246 kts 59°
2026-04-15 16:46 60.00679 25.94800 3509 ft 246 kts 59°
2026-04-15 16:46 60.01519 25.97752 3518 ft 246 kts 59°
2026-04-15 16:46 60.02370 26.00746 3506 ft 246 kts 59°
2026-04-15 16:46 60.03184 26.03616 3507 ft 246 kts 59°
2026-04-15 16:47 60.04019 26.06568 3508 ft 246 kts 59°
2026-04-15 16:47 60.04868 26.09573 3504 ft 245 kts 59°
2026-04-15 16:47 60.05701 26.12524 3507 ft 245 kts 59°
2026-04-15 16:47 60.06538 26.15499 3498 ft 245 kts 59°
2026-04-15 16:48 60.07379 26.18488 3489 ft 245 kts 59°
2026-04-15 16:48 60.08221 26.21485 3499 ft 246 kts 59°
2026-04-15 16:48 60.09055 26.24461 3501 ft 246 kts 59°
2026-04-15 16:48 60.09896 26.27463 3501 ft 246 kts 59°
2026-04-15 16:49 60.10743 26.30493 3504 ft 247 kts 59°
2026-04-15 16:49 60.11557 26.33408 3500 ft 247 kts 59°
2026-04-15 16:49 60.12394 26.36413 3513 ft 247 kts 59°
2026-04-15 16:49 60.13234 26.39430 3500 ft 247 kts 59°
2026-04-15 16:50 60.14062 26.42472 3504 ft 247 kts 60°
2026-04-15 16:50 60.14864 26.45454 3510 ft 247 kts 60°
2026-04-15 16:50 60.15691 26.48532 3508 ft 247 kts 60°
2026-04-15 16:50 60.16499 26.51544 3506 ft 247 kts 60°
2026-04-15 16:51 60.17315 26.54592 3514 ft 247 kts 60°
2026-04-15 16:51 60.18128 26.57629 3526 ft 248 kts 60°
2026-04-15 16:51 60.18954 26.60720 3518 ft 247 kts 60°
2026-04-15 16:51 60.19761 26.63745 3506 ft 247 kts 60°
2026-04-15 16:52 60.20560 26.66744 3523 ft 248 kts 61°
2026-04-15 16:52 60.21347 26.69704 3524 ft 248 kts 61°
2026-04-15 16:52 60.22147 26.72712 3520 ft 248 kts 61°
2026-04-15 16:52 60.22992 26.75748 3514 ft 247 kts 54°
2026-04-15 16:53 60.24318 26.77859 3517 ft 247 kts 24°
2026-04-15 16:53 60.25993 26.78646 3519 ft 249 kts
2026-04-15 16:53 60.27727 26.78151 3519 ft 252 kts 343°
2026-04-15 16:53 60.29257 26.76397 3525 ft 256 kts 321°
2026-04-15 16:54 60.30345 26.73575 3517 ft 260 kts 299°
2026-04-15 16:54 60.31100 26.70231 3512 ft 261 kts 296°
2026-04-15 16:54 60.31837 26.66893 3514 ft 261 kts 296°
2026-04-15 16:54 60.32584 26.63492 3509 ft 261 kts 294°
2026-04-15 16:55 60.32967 26.59941 3511 ft 264 kts 272°
2026-04-15 16:55 60.32598 26.56295 3520 ft 266 kts 250°
2026-04-15 16:55 60.31883 26.52832 3521 ft 267 kts 249°
2026-04-15 16:55 60.31171 26.49396 3515 ft 267 kts 249°
2026-04-15 16:56 60.30444 26.45886 3512 ft 268 kts 249°
2026-04-15 16:56 60.29733 26.42455 3515 ft 267 kts 249°
2026-04-15 16:56 60.29018 26.39016 3522 ft 267 kts 249°
2026-04-15 16:56 60.28853 26.38221 3520 ft 267 kts 249°
2026-04-15 16:57 60.28311 26.35617 3517 ft 267 kts 249°
2026-04-15 16:57 60.28216 26.35160 3516 ft 267 kts 249°
2026-04-15 16:58 60.27549 26.31965 3514 ft 267 kts 248°
2026-04-15 16:58 60.26979 26.29234 3517 ft 267 kts 248°
2026-04-15 16:58 60.26449 26.26700 3516 ft 267 kts 248°
2026-04-15 16:59 60.25766 26.23436 3516 ft 267 kts 248°
2026-04-15 16:59 60.25033 26.19941 3516 ft 268 kts 248°
2026-04-15 17:00 60.24306 26.16480 3514 ft 268 kts 248°
2026-04-15 17:00 60.23582 26.13043 3519 ft 268 kts 248°
2026-04-15 17:00 60.22855 26.09592 3515 ft 268 kts 248°
2026-04-15 17:00 60.22128 26.06152 3522 ft 268 kts 248°
2026-04-15 17:01 60.21394 26.02680 3515 ft 268 kts 248°
2026-04-15 17:01 60.20670 25.99265 3515 ft 268 kts 248°
2026-04-15 17:01 60.19943 25.95843 3517 ft 268 kts 248°
2026-04-15 17:01 60.19208 25.92390 3511 ft 268 kts 248°
2026-04-15 17:02 60.18484 25.88957 3519 ft 268 kts 250°
2026-04-15 17:02 60.17829 25.85557 3516 ft 268 kts 251°
2026-04-15 17:02 60.17155 25.81999 3511 ft 268 kts 251°
2026-04-15 17:02 60.16495 25.78517 3516 ft 269 kts 251°
2026-04-15 17:03 60.15824 25.74987 3514 ft 269 kts 251°
2026-04-15 17:03 60.15157 25.71483 3505 ft 269 kts 251°
2026-04-15 17:03 60.14496 25.68018 3513 ft 269 kts 251°
2026-04-15 17:03 60.13818 25.64472 3521 ft 269 kts 251°
2026-04-15 17:04 60.13155 25.61006 3514 ft 269 kts 251°
2026-04-15 17:04 60.12485 25.57506 3513 ft 269 kts 251°
2026-04-15 17:04 60.11876 25.54333 3509 ft 269 kts 251°
2026-04-15 17:04 60.11209 25.50868 3515 ft 269 kts 251°
2026-04-15 17:05 60.10528 25.47329 3511 ft 270 kts 251°
2026-04-15 17:05 60.09860 25.43866 3515 ft 269 kts 251°
2026-04-15 17:05 60.09191 25.40407 3512 ft 269 kts 251°
2026-04-15 17:05 60.08517 25.36922 3507 ft 268 kts 251°
2026-04-15 17:06 60.07881 25.33645 3515 ft 269 kts 250°
2026-04-15 17:06 60.07240 25.30342 3501 ft 269 kts 250°
2026-04-15 17:06 60.06551 25.26804 3498 ft 269 kts 250°
2026-04-15 17:06 60.05872 25.23316 3504 ft 269 kts 250°
2026-04-15 17:07 60.05201 25.19880 3500 ft 269 kts 250°
2026-04-15 17:07 60.04512 25.16355 3498 ft 269 kts 250°
2026-04-15 17:07 60.03827 25.12859 3494 ft 269 kts 250°
2026-04-15 17:07 60.03148 25.09399 3504 ft 270 kts 250°
2026-04-15 17:08 60.02459 25.05898 3484 ft 270 kts 250°
2026-04-15 17:08 60.01783 25.02464 3500 ft 270 kts 250°
2026-04-15 17:08 60.01087 24.98935 3491 ft 270 kts 250°
2026-04-15 17:08 60.00394 24.95429 3490 ft 270 kts 250°
2026-04-15 17:09 59.99738 24.92114 3494 ft 271 kts 250°
2026-04-15 17:09 59.99102 24.88903 3488 ft 270 kts 249°
2026-04-15 17:09 59.98340 24.85167 3482 ft 270 kts 246°
2026-04-15 17:09 59.97471 24.81825 3488 ft 270 kts 242°
2026-04-15 17:10 59.96556 24.78526 3496 ft 270 kts 242°
2026-04-15 17:10 59.95636 24.75204 3493 ft 270 kts 242°
2026-04-15 17:10 59.94733 24.71945 3492 ft 270 kts 242°
2026-04-15 17:10 59.93825 24.68672 3488 ft 271 kts 242°
2026-04-15 17:11 59.92903 24.65351 3485 ft 271 kts 242°
2026-04-15 17:11 59.91993 24.62077 3494 ft 271 kts 242°
2026-04-15 17:11 59.91074 24.58776 3495 ft 271 kts 242°
2026-04-15 17:12 59.89294 24.52395 3496 ft 271 kts 242°
2026-04-15 17:12 59.88388 24.49153 3490 ft 271 kts 241°
2026-04-15 17:12 59.87477 24.45895 3496 ft 271 kts 242°
2026-04-15 17:12 59.86550 24.42586 3493 ft 271 kts 242°
2026-04-15 17:13 59.85627 24.39296 3486 ft 270 kts 241°
2026-04-15 17:13 59.84719 24.36063 3497 ft 270 kts 241°
2026-04-15 17:13 59.83820 24.32868 3500 ft 270 kts 240°
2026-04-15 17:13 59.82883 24.29539 3497 ft 271 kts 240°
2026-04-15 17:14 59.81974 24.26317 3495 ft 271 kts 240°
2026-04-15 17:14 59.81065 24.23097 3496 ft 270 kts 240°
2026-04-15 17:14 59.80144 24.19841 3503 ft 271 kts 240°
2026-04-15 17:14 59.79209 24.16539 3496 ft 271 kts 240°
2026-04-15 17:15 59.78285 24.13281 3500 ft 271 kts 240°
2026-04-15 17:15 59.77354 24.10004 3497 ft 271 kts 240°
2026-04-15 17:15 59.76434 24.06767 3503 ft 271 kts 240°
2026-04-15 17:15 59.75507 24.03510 3503 ft 271 kts 240°
2026-04-15 17:16 59.74651 24.00123 3494 ft 272 kts 246°
2026-04-15 17:16 59.73900 23.96733 3495 ft 272 kts 246°
2026-04-15 17:16 59.73129 23.93271 3489 ft 271 kts 246°
2026-04-15 17:16 59.72369 23.89862 3494 ft 271 kts 246°
2026-04-15 17:17 59.71607 23.86448 3490 ft 271 kts 245°
2026-04-15 17:17 59.70845 23.83038 3491 ft 270 kts 246°
2026-04-15 17:17 59.70083 23.79636 3492 ft 270 kts 246°
2026-04-15 17:17 59.69318 23.76225 3482 ft 271 kts 245°
2026-04-15 17:18 59.68541 23.72763 3494 ft 271 kts 246°
2026-04-15 17:18 59.67772 23.69343 3489 ft 271 kts 246°
2026-04-15 17:18 59.67003 23.65931 3487 ft 271 kts 246°
2026-04-15 17:18 59.66235 23.62527 3479 ft 271 kts 246°
2026-04-15 17:19 59.65464 23.59115 3481 ft 271 kts 246°
2026-04-15 17:19 59.64690 23.55694 3480 ft 271 kts 245°
2026-04-15 17:19 59.63921 23.52297 3471 ft 271 kts 245°
2026-04-15 17:19 59.63154 23.48919 3477 ft 271 kts 245°
2026-04-15 17:20 59.62373 23.45487 3474 ft 270 kts 245°
2026-04-15 17:20 59.61597 23.42080 3475 ft 271 kts 245°
2026-04-15 17:20 59.60827 23.38706 3470 ft 271 kts 245°
2026-04-15 17:20 59.60039 23.35258 3468 ft 271 kts 245°
2026-04-15 17:21 59.59310 23.32069 3470 ft 271 kts 244°
2026-04-15 17:21 59.58535 23.28691 3471 ft 270 kts 245°
2026-04-15 17:21 59.57754 23.25285 3473 ft 271 kts 244°
2026-04-15 17:21 59.56973 23.21890 3474 ft 271 kts 245°
2026-04-15 17:22 59.56190 23.18486 3460 ft 271 kts 244°
2026-04-15 17:22 59.55408 23.15095 3462 ft 271 kts 245°
2026-04-15 17:22 59.54622 23.11692 3462 ft 271 kts 245°
2026-04-15 17:22 59.53836 23.08293 3456 ft 270 kts 245°
2026-04-15 17:23 59.53077 23.05017 3461 ft 270 kts 245°
2026-04-15 17:23 59.52324 23.01771 3467 ft 271 kts 244°
2026-04-15 17:23 59.51542 22.98405 3461 ft 271 kts 244°
2026-04-15 17:23 59.50752 22.95012 3463 ft 271 kts 244°
2026-04-15 17:24 59.49972 22.91664 3461 ft 271 kts 244°
2026-04-15 17:24 59.49176 22.88254 3460 ft 271 kts 244°
2026-04-15 17:24 59.48380 22.84847 3462 ft 271 kts 244°
2026-04-15 17:24 59.47590 22.81477 3460 ft 270 kts 244°
2026-04-15 17:25 59.46800 22.78107 3460 ft 270 kts 244°
2026-04-15 17:25 59.46008 22.74735 3457 ft 270 kts 244°
2026-04-15 17:25 59.45218 22.71380 3462 ft 270 kts 244°
2026-04-15 17:25 59.44421 22.67975 3459 ft 270 kts 246°
2026-04-15 17:26 59.43988 22.64379 3469 ft 272 kts 269°
2026-04-15 17:26 59.44307 22.60771 3467 ft 271 kts 294°
2026-04-15 17:26 59.45253 22.57564 3463 ft 270 kts 306°
2026-04-15 17:26 59.46299 22.54458 3461 ft 271 kts 305°
2026-04-15 17:27 59.47394 22.51413 3462 ft 269 kts 315°
2026-04-15 17:27 59.48905 22.49290 3471 ft 264 kts 341°
2026-04-15 17:27 59.50667 22.48603 3464 ft 259 kts
2026-04-15 17:27 59.52473 22.48767 3461 ft 258 kts
2026-04-15 17:28 59.54264 22.48965 3463 ft 258 kts
2026-04-15 17:28 59.56075 22.49159 3467 ft 258 kts
2026-04-15 17:28 59.57885 22.49353 3470 ft 258 kts
2026-04-15 17:28 59.59665 22.49544 3473 ft 258 kts
2026-04-15 17:29 59.61369 22.49727 3479 ft 258 kts
2026-04-15 17:29 59.63195 22.49923 3481 ft 258 kts
2026-04-15 17:29 59.65001 22.50117 3478 ft 258 kts
2026-04-15 17:29 59.66792 22.50308 3477 ft 258 kts
2026-04-15 17:30 59.68574 22.50500 3477 ft 258 kts
2026-04-15 17:30 59.70340 22.50690 3478 ft 257 kts
2026-04-15 17:30 59.72149 22.50884 3482 ft 258 kts
2026-04-15 17:30 59.73921 22.51075 3481 ft 258 kts
2026-04-15 17:31 59.75492 22.51244 3483 ft 258 kts
2026-04-15 17:31 59.77428 22.51453 3483 ft 258 kts
2026-04-15 17:31 59.79213 22.51645 3481 ft 257 kts
2026-04-15 17:31 59.81010 22.51839 3480 ft 257 kts
2026-04-15 17:32 59.82795 22.52031 3481 ft 257 kts
2026-04-15 17:32 59.84595 22.52226 3486 ft 257 kts
2026-04-15 17:32 59.86357 22.52416 3487 ft 257 kts
2026-04-15 17:32 59.88153 22.52610 3486 ft 257 kts
2026-04-15 17:33 59.89960 22.52806 3485 ft 257 kts
2026-04-15 17:33 59.91758 22.53001 3489 ft 257 kts
2026-04-15 17:33 59.93553 22.53196 3493 ft 257 kts
2026-04-15 17:33 59.95366 22.53393 3491 ft 257 kts
2026-04-15 17:34 59.97139 22.53586 3488 ft 257 kts
2026-04-15 17:34 59.98916 22.53779 3494 ft 257 kts
2026-04-15 17:34 60.00710 22.53974 3491 ft 257 kts
2026-04-15 17:34 60.02487 22.54168 3491 ft 257 kts
2026-04-15 17:35 60.04261 22.54362 3490 ft 256 kts
2026-04-15 17:35 60.06024 22.54555 3491 ft 256 kts
2026-04-15 17:35 60.07832 22.54752 3491 ft 256 kts
2026-04-15 17:35 60.09600 22.54946 3492 ft 256 kts
2026-04-15 17:36 60.11265 22.55128 3495 ft 256 kts
2026-04-15 17:36 60.13040 22.55322 3513 ft 256 kts
2026-04-15 17:36 60.14827 22.55533 3518 ft 256 kts
2026-04-15 17:36 60.16595 22.55974 3514 ft 256 kts 11°
2026-04-15 17:37 60.18365 22.56473 3517 ft 256 kts 11°
2026-04-15 17:37 60.20137 22.56968 3516 ft 256 kts 11°
2026-04-15 17:37 60.21891 22.57457 3516 ft 256 kts 11°
2026-04-15 17:37 60.23655 22.57949 3518 ft 256 kts 11°
2026-04-15 17:38 60.25422 22.58441 3516 ft 256 kts 11°
2026-04-15 17:38 60.27204 22.58939 3438 ft 257 kts 11°
2026-04-15 17:38 60.28967 22.59441 3190 ft 256 kts 12°
2026-04-15 17:38 60.30738 22.59940 2941 ft 254 kts 11°
2026-04-15 17:39 60.32490 22.60425 2688 ft 252 kts 11°
2026-04-15 17:39 60.34221 22.60906 2442 ft 251 kts 11°
2026-04-15 17:39 60.35952 22.61389 2192 ft 250 kts 11°
2026-04-15 17:39 60.37667 22.61866 2018 ft 247 kts 11°
2026-04-15 17:40 60.39390 22.62346 2002 ft 249 kts 11°
2026-04-15 17:40 60.41099 22.62821 2004 ft 238 kts 11°
2026-04-15 17:40 60.42683 22.63258 2020 ft 219 kts 12°
2026-04-15 17:40 60.44135 22.63658 2015 ft 203 kts 12°
2026-04-15 17:41 60.45536 22.63764 2004 ft 202 kts
2026-04-15 17:41 60.46917 22.63023 1988 ft 206 kts 341°
2026-04-15 17:41 60.48232 22.61845 1993 ft 207 kts 340°
2026-04-15 17:41 60.49541 22.60638 1996 ft 207 kts 340°
2026-04-15 17:42 60.50856 22.59402 1995 ft 202 kts 336°
2026-04-15 17:42 60.51818 22.57465 2006 ft 195 kts 300°
2026-04-15 17:42 60.52356 22.54893 2006 ft 197 kts 292°
2026-04-15 17:42 60.52574 22.52152 1994 ft 194 kts 270°
2026-04-15 17:43 60.52456 22.49391 1999 ft 193 kts 264°
2026-04-15 17:43 60.52310 22.46792 1960 ft 175 kts 265°
2026-04-15 17:43 60.52191 22.44261 1645 ft 180 kts 265°
2026-04-15 17:43 60.52089 22.41900 1505 ft 154 kts 266°
2026-04-15 17:44 60.52004 22.39906 1343 ft 137 kts 266°
2026-04-15 17:44 60.51923 22.37972 1066 ft 132 kts 266°
2026-04-15 17:44 60.51841 22.36122 881 ft 126 kts 267°
2026-04-15 17:44 60.51769 22.34290 717 ft 130 kts 266°
2026-04-15 17:45 60.51696 22.32521 570 ft 125 kts 265°
2026-04-15 17:45 60.51612 22.30763 433 ft 125 kts 266°
2026-04-15 17:45 60.51532 22.29037 249 ft 118 kts 265°
2026-04-15 17:45 60.51464 22.27433 169 ft 104 kts 266°
2026-04-15 17:46 60.51420 22.26443 168 ft 50 kts 265°
2026-04-15 17:46 60.51392 22.25795 161 ft 28 kts 263°
2026-04-15 17:46 60.51370 22.25395 155 ft 23 kts 251°
2026-04-15 17:46 60.51270 22.25255 152 ft 13 kts 171°
2026-04-15 17:47 60.51203 22.25388 154 ft 12 kts 99°
2026-04-15 17:47 60.51210 22.25581 158 ft 14 kts 84°
2026-04-15 17:47 60.51220 22.25813 161 ft 18 kts 84°
2026-04-15 17:47 60.51234 22.26083 164 ft 20 kts 78°
2026-04-15 17:48 60.51288 22.26363 167 ft 20 kts 71°
2026-04-15 17:48 60.51306 22.26641 169 ft 21 kts 84°
2026-04-15 17:48 60.51321 22.26972 170 ft 25 kts 84°
2026-04-15 17:48 60.51339 22.27338 169 ft 26 kts 83°
2026-04-15 17:49 60.51356 22.27705 165 ft 28 kts 83°
2026-04-15 17:49 60.51378 22.28146 157 ft 34 kts 85°
2026-04-15 17:49 60.51386 22.28475 153 ft 13 kts 88°
2026-04-15 17:49 60.51380 22.28546 153 ft 7 kts 138°
2026-04-15 17:50 60.51318 22.28617 153 ft 13 kts 126°
2026-04-15 17:50 60.51301 22.28747 152 ft 3 kts 78°
2026-04-15 17:50 60.51315 22.28777 152 ft 0 kts 354°
2026-04-15 17:50 60.51318 22.28777 152 ft 0 kts 353°